Location: Unspecified
(0.0000°N, 0.0000°E)
Time: 16:14:09
(UTC+00:00)

NO-84 - Visible Passes

Search period start: 22 April 2018 00:00
Search period end: 02 May 2018 00:00
Orbit: 339 x 555 km, 55.0° (Epoch: 19 April)

Date Brightness Start Highest point End Pass type
(mag) Time Alt. Az. Time Alt. Az. Time Alt. Az.
22 Apr ? 05:28:12 10° SW 05:30:57 42° WNW 05:33:50 10° NNE visible
23 Apr ? 04:51:49 40° SSW 04:52:44 88° SE 04:55:42 10° NNE visible
24 Apr ? 04:15:52 23° ENE 04:15:52 23° ENE 04:17:17 10° NE visible
